Norfolk, NE

7:53 AM CDT on May 24, 2018 (GMT -0500)
Stefan Memorial

Weather History for KOFK - October, 2013

Change the Weather History Date:

Friday, October 4, 2013

  Actual Average Record
Temperature  
Mean Temperature 60 °F 56 °F  
Max Temperature 79 °F 69 °F 92 °F (1938)
Min Temperature 41 °F 43 °F 25 °F (1935)
Degree Days  
Heating Degree Days 5 10  
Month to date heating degree days 11 38  
Since 1 July heating degree days 56 180  
Cooling Degree Days 0 1  
Month to date cooling degree days 2 4  
Year to date cooling degree days 998 910  
Growing Degree Days 12 (Base 50)    
Moisture  
Dew Point 57 °F    
Average Humidity 80    
Maximum Humidity 97    
Minimum Humidity 62    
Precipitation  
Precipitation 0.64 in 0.08 in 2.15 in (2016)
Month to date precipitation 1.94 0.34  
Year to date precipitation 21.20 23.56  
Snow  
Snow 0.00 in 0.00 in - ()
Month to date snowfall 0.0 0.0  
Since 1 July snowfall 0.0 T  
Snow Depth 0.00 in    
Sea Level Pressure  
Sea Level Pressure 29.71 in    
Wind  
Wind Speed 15 mph (ESE)    
Max Wind Speed 31 mph    
Max Gust Speed 39 mph    
Visibility 9 miles    
Events Rain , Thunderstorm    
T = Trace of Precipitation, MM = Missing Value Source: NWS Daily Summary

Daily Weather History Graph

Daily Weather History Graph

Search for Another Location

Airport or City:

Astronomy

Oct. 04, 2013 Rise Set
Actual Time 7:30 AM CDT 7:05 PM CDT
Civil Twilight 7:02 AM CDT 7:33 PM CDT
Nautical Twilight 6:30 AM CDT 8:05 PM CDT
Astronomical Twilight 5:57 AM CDT 8:38 PM CDT
Moon 7:07 AM CDT (10/4) 6:48 PM CDT (10/4)
Length of Visible Light 12h 31m
Length of Day
11h 35m
Waning Crescent, 0% of the Moon is Illuminated
Oct 4
Waning Crescent
Oct 4
New
Oct 11
First Quarter
Oct 18
Full
Oct 26
Last Quarter

Hourly Weather History & Observations

Time (CDT) Temp. Windchill Dew Point Humidity Pressure Visibility Wind Dir Wind Speed Gust Speed Precip Events Conditions
12:56 AM 57.9 °F - 57.0 °F 97% 29.80 in 7.0 mi East 10.4 mph - 0.00 in Rain Light Rain
1:56 AM 59.0 °F - 57.0 °F 93% 29.78 in 6.0 mi ENE 11.5 mph - 0.05 in Rain Light Rain
2:04 AM 59.0 °F - 57.2 °F 94% 29.78 in 8.0 mi ENE 9.2 mph 19.6 mph 0.00 in Rain , Thunderstorm Light Rain
2:56 AM 59.0 °F - 57.9 °F 96% 29.76 in 6.0 mi ENE 13.8 mph 23.0 mph 0.05 in Rain , Thunderstorm Light Thunderstorms and Rain
3:11 AM 59.0 °F - 57.2 °F 94% 29.77 in 2.5 mi ENE 11.5 mph - 0.17 in Rain , Thunderstorm Heavy Rain
3:19 AM 59.0 °F - 57.2 °F 94% 29.76 in 4.0 mi ENE 9.2 mph - 0.19 in Rain , Thunderstorm Thunderstorms and Rain
3:56 AM 60.1 °F - 57.9 °F 93% 29.75 in 4.0 mi East 11.5 mph 18.4 mph 0.50 in Rain , Thunderstorm Heavy Thunderstorms and Rain
4:23 AM 60.8 °F - 59.0 °F 94% 29.76 in 10.0 mi East 13.8 mph - 0.02 in Rain Light Rain
4:56 AM 61.0 °F - 59.0 °F 93% 29.75 in 9.0 mi East 9.2 mph - 0.03 in Rain Light Rain
5:56 AM 61.0 °F - 59.0 °F 93% 29.75 in 10.0 mi East 9.2 mph - 0.01 in   Overcast
6:19 AM 60.8 °F - 59.0 °F 94% 29.76 in 10.0 mi East 10.4 mph - N/A   Overcast
6:56 AM 61.0 °F - 59.0 °F 93% 29.75 in 10.0 mi East 10.4 mph - N/A   Mostly Cloudy
7:24 AM 60.8 °F - 59.0 °F 94% 29.76 in 10.0 mi East 11.5 mph - N/A   Mostly Cloudy
7:53 AM 60.8 °F - 59.0 °F 94% 29.75 in 10.0 mi East 10.4 mph - N/A   Overcast
7:56 AM 61.0 °F - 59.0 °F 93% 29.74 in 10.0 mi East 12.7 mph - N/A   Overcast
8:56 AM 61.0 °F - 59.0 °F 93% 29.73 in 10.0 mi East 15.0 mph 21.9 mph N/A   Overcast
9:21 AM 62.6 °F - 59.0 °F 88% 29.75 in 10.0 mi ESE 13.8 mph - N/A   Overcast
9:56 AM 62.1 °F - 59.0 °F 90% 29.73 in 10.0 mi East 11.5 mph - N/A   Overcast
10:31 AM 62.6 °F - 59.0 °F 88% 29.72 in 10.0 mi East 12.7 mph - 0.00 in   Overcast
10:56 AM 63.0 °F - 60.1 °F 90% 29.71 in 10.0 mi ESE 12.7 mph - 0.00 in   Overcast
11:56 AM 66.0 °F - 61.0 °F 84% 29.71 in 10.0 mi East 11.5 mph - N/A   Overcast
12:56 PM 68.0 °F - 62.1 °F 81% 29.68 in 10.0 mi East 11.5 mph - N/A   Overcast
1:56 PM 71.1 °F - 64.9 °F 81% 29.65 in 10.0 mi ESE 17.3 mph 25.3 mph N/A   Overcast
2:56 PM 73.9 °F - 66.0 °F 76% 29.63 in 10.0 mi ESE 15.0 mph 19.6 mph N/A   Overcast
3:56 PM 75.0 °F - 66.0 °F 73% 29.59 in 10.0 mi ESE 17.3 mph - N/A   Mostly Cloudy
4:21 PM 75.2 °F - 66.2 °F 73% 29.60 in 10.0 mi ESE 12.7 mph 23.0 mph 0.00 in Rain , Thunderstorm Light Rain
4:39 PM 75.2 °F - 64.4 °F 69% 29.59 in 10.0 mi ESE 18.4 mph 21.9 mph 0.00 in Thunderstorm Thunderstorm
4:56 PM 75.0 °F - 64.0 °F 69% 29.55 in 10.0 mi SE 11.5 mph - 0.00 in Thunderstorm Mostly Cloudy
5:17 PM 77.0 °F - 66.2 °F 69% 29.58 in 10.0 mi South 21.9 mph 26.5 mph N/A   Mostly Cloudy
5:25 PM 78.8 °F - 64.4 °F 61% 29.59 in 10.0 mi SSW 26.5 mph 33.4 mph N/A Thunderstorm Mostly Cloudy
5:42 PM 77.0 °F - 57.2 °F 50% 29.61 in 10.0 mi SW 20.7 mph 31.1 mph N/A   Partly Cloudy
5:56 PM 75.9 °F - 55.9 °F 50% 29.59 in 10.0 mi SW 20.7 mph 32.2 mph N/A   Clear
6:56 PM 66.0 °F - 53.1 °F 63% 29.65 in 10.0 mi SW 19.6 mph 28.8 mph N/A   Clear
7:56 PM 59.0 °F - 46.0 °F 62% 29.75 in 10.0 mi WSW 20.7 mph 27.6 mph N/A   Clear
8:56 PM 53.1 °F - 42.1 °F 66% 29.80 in 10.0 mi WSW 17.3 mph 24.2 mph N/A   Clear
9:56 PM 48.9 °F - 39.0 °F 69% 29.82 in 10.0 mi WSW 17.3 mph 25.3 mph N/A   Clear
10:56 PM 45.0 °F 36.6 °F 35.1 °F 68% 29.84 in 10.0 mi WSW 21.9 mph 31.1 mph N/A   Clear
11:56 PM 42.1 °F 33.6 °F 32.0 °F 67% 29.86 in 10.0 mi WSW 18.4 mph 24.2 mph N/A   Clear